Helicity
100 96 102 99 92 78 69 67 68 72 78 86 100 111 126 144 174 213 221 227 237 214 229 240 209 255 236 237 233 225 214 246 227 188 147 124 95 80 76 68 57 49 57
103 105 107 96 91 84 74 65 59 56 62 65 75 85 100 122 151 197 210 234 276 264 244 288 239 265 257 263 270 232 237 238 250 174 156 127 102 88 78 66 68 56 61
117 106 92 81 65 55 47 42 41 43 50 59 64 75 90 113 139 174 202 214 263 279 285 316 277 324 292 311 294 266 256 233 255 252 178 138 108 93 98 80 68 64 68
87 72 66 58 49 40 30 30 34 45 53 62 68 77 92 107 128 155 193 226 249 269 290 316 309 339 306 306 308 291 271 252 267 236 199 158 126 104 104 99 101 89 87
92 74 58 41 25 18 23 30 42 46 46 55 68 87 110 126 141 164 193 223 252 267 290 307 317 317 258 280 341 322 307 301 286 247 217 186 156 137 124 109 111 99 91
73 49 26 17 10 9 21 35 37 28 32 51 57 68 86 122 115 134 156 204 255 275 279 280 284 257 239 192 180 202 286 321 266 286 225 194 155 149 141 130 124 114 80
57 32 16 0 1 10 21 20 20 24 34 43 60 79 98 126 108 125 143 210 240 277 298 298 301 288 238 297 204 169 179 202 214 234 222 185 168 154 150 144 132 126 105
21 0 -16 -20 0 14 22 26 35 43 50 58 70 87 99 116 65 92 120 186 217 227 267 274 295 276 254 272 270 280 282 264 207 180 191 176 184 161 154 145 134 122 118
-13 -17 -6 -6 2 14 21 29 40 47 60 78 87 105 121 125 79 96 130 178 197 202 224 246 254 245 164 116 253 263 276 282 201 147 139 125 122 106 111 145 151 134 96
16 19 10 5 14 21 30 40 71 79 89 111 123 123 109 136 61 66 100 154 157 172 177 192 119 148 106 90 219 251 268 256 225 208 169 138 123 133 103 171 164 145 121
14 10 3 6 18 34 64 76 96 111 134 147 151 149 140 123 121 46 53 108 135 147 148 152 176 90 61 66 106 275 253 215 154 170 152 187 177 149 138 149 150 148 145
23 31 39 36 49 77 92 108 123 132 120 126 129 129 120 101 52 36 8 48 75 145 143 131 139 80 49 72 111 131 129 104 167 178 199 183 173 159 137 141 125 119 111
39 44 61 74 83 102 112 111 128 121 136 134 101 128 126 96 86 32 23 51 63 138 142 79 60 35 74 51 43 109 78 127 201 185 184 148 162 148 149 131 117 105 81
56 76 103 104 88 119 163 139 153 150 153 136 124 118 118 113 91 96 108 112 99 122 135 70 21 133 91 114 110 82 161 207 226 153 148 168 164 158 127 123 131 113 81
101 109 118 138 129 136 136 130 131 147 121 120 118 120 132 125 110 73 76 96 97 100 130 109 14 183 146 169 155 161 198 176 144 167 186 159 149 121 106 116 116 111 83
119 133 135 132 140 138 131 118 64 28 15 34 35 77 129 70 44 40 41 38 23 8 105 114 102 98 169 207 150 158 131 115 153 166 153 127 127 121 105 115 121 118 89
139 134 149 129 142 126 104 101 92 95 42 26 22 39 60 63 74 71 51 42 26 15 122 125 143 118 107 167 173 158 125 112 143 138 102 123 137 115 83 109 115 93 85
149 85 142 149 140 124 109 103 106 105 109 98 63 63 56 72 76 68 39 45 70 67 120 116 135 86 70 146 164 164 142 144 121 116 109 129 130 136 132 119 102 90 78
144 138 136 137 137 103 108 124 128 120 138 148 119 100 118 99 77 30 52 115 103 60 63 24 120 -20 115 120 116 114 116 98 112 126 103 125 130 143 126 114 94 40 35
125 55 58 118 125 135 153 151 130 129 146 154 152 145 96 153 122 94 89 92 102 72 29 14 130 111 123 118 119 99 102 83 99 107 107 116 123 129 127 109 97 80 53
134 127 60 116 133 120 139 147 157 169 154 146 154 152 89 85 106 90 110 74 85 58 -15 10 105 160 145 151 115 101 92 85 96 103 109 112 123 130 121 103 90 73 66
137 144 147 142 128 125 145 162 183 160 130 101 95 123 100 100 105 100 112 69 78 40 -9 -12 16 115 158 139 130 115 112 97 92 112 122 124 121 128 119 107 85 73 60
145 146 147 141 133 110 149 164 166 144 112 148 152 156 121 153 122 118 96 41 38 -7 -6 -15 0 82 122 125 117 104 97 83 101 124 139 133 125 124 113 103 81 70 54
153 151 119 139 148 130 155 168 135 -50 127 158 135 104 100 80 83 116 56 -21 -6 -5 -1 -5 24 88 77 83 71 73 82 100 120 115 138 125 119 85 100 78 74 53 49
159 150 138 133 137 145 177 -76 -90 161 126 132 112 111 80 70 102 79 22 -14 -8 -5 -5 22 48 38 45 74 75 81 90 101 119 119 109 105 96 86 72 60 52 49 48
160 154 159 165 159 118 -77 -3 71 80 137 102 107 82 82 33 28 17 -10 -2 -6 -17 -6 -2 31 44 63 79 81 94 108 117 104 88 92 94 89 60 47 40 35 49 55
Wind_Speed
55 55 55 57 57 56 57 59 60 60 62 62 63 63 63 62 59 58 58 58 56 56 54 53 53 51 52 51 50 51 53 53 64 66 62 61 67 65 64 62 60 59 57
55 55 56 57 59 61 63 64 65 67 67 67 67 68 69 67 64 60 57 54 53 54 54 53 55 55 55 55 54 55 56 55 61 71 65 63 62 62 64 62 60 57 57
55 57 59 61 64 66 68 69 71 73 74 73 73 74 73 71 67 63 60 60 59 59 59 59 60 59 60 59 57 58 57 56 57 65 69 61 61 60 62 58 59 57 53
57 60 63 67 70 72 74 76 78 78 79 79 78 77 76 75 73 71 68 67 66 66 66 65 64 63 63 61 60 59 58 59 59 64 67 66 63 57 55 61 61 54 59
63 66 70 72 74 78 81 83 83 82 82 82 84 84 83 82 80 80 77 76 76 77 73 71 70 67 65 62 62 61 59 62 63 65 66 63 60 59 58 55 58 59 58
67 71 74 78 82 84 85 86 85 85 87 87 89 89 89 86 88 90 89 87 83 81 81 79 75 72 69 65 62 60 58 60 62 61 61 59 57 55 52 51 55 57 60
72 76 79 81 84 84 85 87 89 91 91 92 92 92 95 94 95 95 95 94 92 87 85 84 82 74 67 64 62 59 57 52 51 53 55 51 52 47 46 51 50 51 52
74 77 79 82 86 88 89 91 92 92 93 94 95 94 96 97 100 103 103 99 95 92 87 84 81 75 66 62 60 58 57 52 48 46 46 47 42 41 42 45 48 50 51
75 79 83 86 89 91 94 95 94 94 96 98 98 101 103 104 104 106 107 104 102 98 91 82 75 71 66 62 60 59 58 55 48 46 43 40 41 39 38 41 42 50 58
78 81 83 87 90 94 94 97 95 97 100 100 103 101 103 106 103 105 103 101 104 100 91 80 71 66 62 60 56 56 57 55 49 43 40 40 34 36 38 35 40 48 52
79 84 88 91 93 93 95 96 99 102 103 105 106 103 100 96 99 101 101 98 96 97 91 83 70 63 60 58 53 53 53 48 40 37 36 35 33 33 35 35 37 38 42
84 89 91 94 96 97 99 100 99 102 106 107 109 108 100 98 97 97 96 93 90 93 90 78 69 63 59 54 51 48 43 40 33 32 32 33 31 32 34 35 36 34 32
89 94 97 98 98 97 100 103 104 102 104 106 106 108 109 104 98 96 93 89 87 85 80 76 63 58 53 50 43 40 35 30 29 32 32 31 28 30 36 38 33 32 33
98 102 101 103 104 98 96 99 101 102 103 103 104 105 106 104 97 91 88 86 82 79 72 71 63 46 40 38 37 37 34 35 28 25 27 29 31 32 28 26 27 27 36
102 103 104 101 102 104 101 101 101 97 94 99 98 98 98 98 93 90 88 87 83 80 61 61 55 43 36 36 39 38 37 33 30 27 30 30 32 27 24 22 23 26 36
105 102 101 101 102 103 106 110 95 96 95 92 86 81 82 79 85 87 84 81 82 78 54 45 48 45 34 40 44 40 39 38 31 30 32 38 29 23 19 18 23 25 38
99 99 98 98 100 103 104 106 114 112 95 87 77 74 73 75 79 81 78 74 74 67 41 45 48 51 55 45 42 39 37 38 32 34 40 34 29 27 17 16 17 28 38
91 92 94 96 98 101 102 102 99 101 104 99 76 72 73 72 76 81 76 73 72 49 35 44 48 54 58 44 44 38 40 38 32 35 37 30 27 24 23 17 14 25 36
90 91 92 94 94 95 96 96 93 88 85 83 83 77 76 73 82 77 66 56 56 56 47 66 45 59 44 38 49 45 43 40 34 31 30 26 23 23 25 22 23 24 31
88 91 92 93 94 94 93 89 87 83 81 79 78 74 91 77 74 72 64 54 48 43 60 63 45 45 41 45 45 41 38 38 29 26 26 25 24 26 28 28 30 32 33
89 92 93 92 90 88 87 85 81 79 80 80 75 62 59 70 67 65 58 56 45 28 65 63 32 8 31 32 38 34 35 39 35 31 31 31 30 31 29 31 35 40 40
86 89 89 86 87 84 80 79 74 79 83 88 88 59 57 57 50 47 44 47 37 15 61 61 33 14 21 5 11 17 26 30 29 28 26 26 26 25 25 27 32 39 43
81 83 84 82 79 80 77 72 76 83 90 76 69 60 56 46 49 41 37 32 12 50 59 57 45 9 8 10 11 18 18 16 18 18 17 19 20 19 21 24 28 35 42
77 80 80 79 80 79 71 82 86 82 84 69 71 69 54 57 38 29 29 43 36 52 57 56 50 31 23 11 10 13 13 13 12 10 11 15 15 13 18 21 28 34 40
75 77 75 77 77 73 75 73 83 85 94 75 61 59 51 31 23 24 14 49 53 51 54 51 42 46 37 17 13 15 14 14 12 12 12 11 8 10 14 20 28 35 39
73 70 69 72 70 59 64 86 101 94 75 83 54 39 35 37 24 27 48 51 52 48 49 50 45 36 29 18 19 17 16 16 15 13 11 10 10 12 17 23 29 34 33
Wind_Direction
337 339 340 341 343 344 341 338 337 336 333 331 330 328 326 324 321 318 315 314 312 313 313 311 310 310 310 310 309 309 308 307 306 312 315 317 318 320 322 324 325 325 325
343 345 346 347 347 345 343 342 341 338 336 334 332 330 328 326 324 321 317 314 311 309 309 308 306 307 304 305 304 304 304 304 304 306 313 315 316 320 321 322 324 325 325
346 347 348 347 345 343 341 340 338 336 334 333 332 330 329 328 326 323 319 315 311 307 305 304 304 303 301 301 299 300 301 302 302 304 308 314 316 319 320 322 323 324 328
344 344 343 341 340 339 338 336 335 334 332 331 330 329 328 327 325 323 319 315 311 308 305 301 300 299 298 297 295 296 298 298 300 301 304 308 312 317 319 318 320 326 326
338 338 337 337 337 335 334 333 333 332 332 331 329 328 327 326 324 322 318 315 312 308 305 302 298 294 293 292 293 292 293 294 296 299 301 305 309 311 313 318 319 324 325
336 335 335 334 334 333 333 332 332 331 330 330 328 328 327 326 324 321 318 314 310 307 305 303 299 294 289 288 287 288 288 290 293 296 299 301 305 309 314 316 319 322 323
333 333 334 334 333 333 333 332 331 330 329 328 328 328 326 325 324 321 318 315 311 307 304 302 300 296 289 286 284 284 283 284 289 291 295 298 303 308 312 314 317 319 320
333 333 334 333 332 332 332 331 330 330 329 328 327 327 325 325 324 321 319 316 313 309 304 301 298 295 289 285 284 282 282 282 282 286 289 296 300 306 310 313 315 318 321
333 333 333 332 332 332 331 330 330 329 328 328 327 326 325 324 324 322 321 318 315 312 308 303 298 293 288 282 282 281 282 283 285 284 289 292 297 303 308 312 313 316 316
332 333 334 333 332 331 331 330 330 329 328 328 327 326 325 324 325 324 323 321 318 316 312 307 299 292 287 281 275 278 280 283 285 285 287 291 293 301 307 310 313 314 315
331 331 331 332 331 331 331 331 330 329 327 327 326 326 326 326 326 327 326 323 321 319 316 311 304 295 286 282 274 276 277 287 283 282 285 288 293 299 305 308 312 314 314
328 329 330 331 331 330 329 329 329 328 326 326 326 326 327 327 328 328 328 325 324 323 319 313 306 298 292 282 277 275 278 283 282 281 285 287 292 299 305 309 313 314 314
326 327 327 328 329 329 329 327 327 328 327 327 327 327 326 327 328 329 329 329 327 325 324 318 308 300 292 288 276 277 274 273 276 279 284 286 293 305 311 314 316 318 316
323 324 326 325 326 328 329 328 327 326 326 327 327 327 327 328 329 331 331 330 330 329 326 323 313 303 293 291 288 281 274 275 274 276 284 294 302 310 314 317 317 318 313
322 323 324 325 326 326 327 327 326 326 326 325 326 326 327 328 330 329 329 331 330 330 326 325 316 313 294 293 291 282 276 275 275 282 288 295 303 313 318 320 318 318 311
322 324 325 326 326 326 326 326 329 327 327 326 324 324 327 328 331 332 332 331 330 330 329 327 321 312 298 290 284 279 274 274 279 283 290 295 305 314 321 323 318 315 308
324 325 326 326 327 327 327 327 326 327 329 329 328 327 328 327 331 333 333 335 333 334 330 327 320 303 288 287 280 275 275 274 280 285 288 296 306 311 324 326 322 315 309
327 327 327 327 327 327 327 327 328 327 327 328 332 331 330 331 332 333 335 337 335 340 332 326 317 293 281 283 277 275 275 276 280 288 291 300 306 313 316 325 329 320 312
328 328 328 327 328 328 328 328 329 329 329 329 330 331 331 331 332 333 338 339 339 337 331 284 312 260 298 292 275 274 272 275 284 291 297 305 308 311 313 318 322 323 317
329 329 329 329 328 329 330 330 329 330 330 330 329 330 325 331 334 335 337 341 339 339 312 284 309 303 300 284 280 277 274 280 289 298 302 306 308 309 309 311 313 312 313
329 330 330 330 330 330 331 331 330 330 330 329 329 331 331 334 333 334 336 340 339 343 273 285 314 345 309 299 285 281 283 284 288 295 300 300 304 305 308 309 307 303 306
331 331 332 332 332 332 332 332 331 331 329 327 326 330 332 333 335 334 336 340 341 337 265 264 260 321 322 333 314 302 295 296 297 300 305 306 310 312 310 312 308 301 300
334 334 334 334 334 334 332 333 332 329 325 331 332 332 334 331 335 335 338 339 319 254 265 257 230 121 15 315 329 311 313 314 313 313 314 314 317 316 313 314 312 306 302
334 334 334 334 335 334 333 331 329 295 328 333 333 334 336 335 333 333 342 258 246 254 259 261 272 304 148 58 19 352 351 354 348 341 337 329 325 326 322 320 312 309 308
334 335 335 336 335 335 333 286 290 328 326 332 335 337 338 327 328 340 331 258 261 254 258 269 284 266 284 344 9 7 23 15 17 10 358 352 2 343 335 328 318 313 314
334 335 336 336 336 330 286 304 314 321 334 328 337 336 337 342 338 325 258 259 260 246 252 249 272 287 297 339 338 2 32 34 30 29 40 41 15 355 339 330 323 321 328